Regional Weather Roundup
Issued by NWS

Home | Current Version | Previous Version | Text Only | Print | Product List | Glossary Off
Versions: 1 2 3 4 5 6 7 8 9 10 11 12 13 14 15 16 17 18 19 20 21 22 23 24 25 26 27 28 29 30 31 32 33 34 35 36 37 38 39 40 41 42 43 44 45 46 47 48 49 50

000
ASUS45 KTFX 271610
RWRMT
MONTANA REGIONAL WEATHER ROUNDUP
NATIONAL WEATHER SERVICE GREAT FALLS MT
1000 AM MDT WED MAY 27 2015

NOTE: "FAIR" INDICATES FEW OR NO CLOUDS BELOW 12000 FEET WITH NO
SIGNIFICANT WEATHER AND/OR OBSTRUCTIONS TO VISIBILITY.

MTZ001>007-043-271700-
WEST OF THE DIVIDE

CITY           SKY/WX    TMP DP  RH WIND       PRES   REMARKS
KALISPELL      CLOUDY    55  48  77 CALM      30.03S
MISSOULA       PTSUNNY   55  45  68 CALM      30.06S
BUTTE          PTSUNNY   52  43  71 CALM      30.07S
MULLAN PASS    MOSUNNY   49  41  74 CALM      30.07S
DEER LODGE       N/A     52  46  82 N6        30.10F
EUREKA           N/A     55  48  76 S5        30.06R
HAMILTON         N/A     54  45  71 S10       30.05S
LIBBY            N/A     48  46  93 CALM      30.07S
$$

MTZ008-052>055-271700-
SOUTHWEST MONTANA

CITY           SKY/WX    TMP DP  RH WIND       PRES   REMARKS
BOZEMAN        CLOUDY    53  48  83 CALM      30.06S
DILLON         PTSUNNY   52  45  77 SW5       30.05F
W YELLOWSTONE  CLOUDY    46  39  76 SW8       30.12S
$$

MTZ009-010-012-014-046-048-049-054-271700-
EAST SLOPES AND CENTRAL MONTANA

CITY           SKY/WX    TMP DP  RH WIND       PRES   REMARKS
CUT BANK       CLOUDY    57  47  69 N9        30.03S
GREAT FALLS    LGT RAIN  52  49  89 SW10      30.03S
MALMSTROM AFB  PTSUNNY   55  49  81 W12       30.04S
HELENA         LGT RAIN  52  48  86 SE5       30.05S FOG
$$

MTZ011-013-016-021-045-047-050-051-271700-
NORTH CENTRAL MONTANA

CITY           SKY/WX    TMP DP  RH WIND       PRES   REMARKS
HAVRE          PTSUNNY   64  50  60 W6        29.96S
LEWISTOWN      PTSUNNY   57  49  74 W7        30.03S
N BAR RANCH    CLOUDY    61  50  67 NW14      30.04S
CHINOOK          N/A     64  52  63 W5        29.95F
FORT BENTON      N/A     61  52  72 S9        30.01S
$$

MTZ017>020-022>027-061-062-271700-
NORTHEAST MONTANA

CITY           SKY/WX    TMP DP  RH WIND       PRES   REMARKS
GLASGOW        PTSUNNY   64  54  69 NE8       29.95R
JORDAN           N/A     65  51  60 NW3       29.95R
SIDNEY         MOSUNNY   70  48  46 CALM      29.92F
WOLF POINT     HVY RAIN  59  55  87 N3        29.96R VSB 1
PLENTYWOOD       N/A     72  52  49 S5        29.93F
POPLAR           N/A     63  52  67 NW9       29.95R
$$

MTZ028>42-056>058-271700-
SOUTHCENTRAL AND SOUTHEAST MONTANA

CITY           SKY/WX    TMP DP  RH WIND       PRES   REMARKS
BAKER          MOSUNNY   71  52  50 S14       29.95S
BILLINGS       PTSUNNY   58  53  84 CALM      30.00S
LIVINGSTON     LGT RAIN  54  47  77 NW3       30.04S
MILES CITY     TSTM      58  55  90 W15       29.95S FOG
BIG TIMBER       N/A     57  45  62 SW14G20   30.04S
FORSYTH          N/A     57  57 100 W7        29.97S
$$

REGIONAL REPORTS...DAKOTAS

CITY           SKY/WX    TMP DP  RH WIND       PRES   REMARKS
WILLISTON      MOSUNNY   74  49  41 S8        29.93S
MINOT          SUNNY     70  50  49 E6        29.95S
DICKINSON      SUNNY     73  51  46 S15       29.94S
BEACH          FAIR      72  54  53 SE10      29.94S
CROSBY         FAIR      66  52  59 E14       29.95S
WATFORD CITY   FAIR      75  48  38 S14       29.91F
BISMARCK       SUNNY     75  50  41 VRB5      29.97S
GRAND FORKS    MOSUNNY   64  47  53 N13       29.95R
FARGO          SUNNY     70  53  54 N6        29.94R
BUFFALO SD       N/A     69  52  54 S9        29.90S
RAPID CITY     CLOUDY    64  55  72 S10       30.00S
$$

REGIONAL REPORTS...WYOMING/IDAHO/WASHINGTON

CITY           SKY/WX    TMP DP  RH WIND       PRES   REMARKS
GILLETTE       PTSUNNY   62  51  67 S9        29.99F
SHERIDAN       CLOUDY    60  50  69 NW7       30.00F
BUFFALO WY     CLOUDY    57  47  69 N8        30.02S
CODY           MOSUNNY   57  48  72 NE5       30.03S
YELLOWSTONE LA   N/A     43  39  86 VRB3      30.17S
IDAHO FALLS    CLOUDY    54  48  80 CALM      30.08S
SALMON         CLOUDY    54  45  71 CALM      30.05S
BOISE          SUNNY     62  49  62 VRB3      30.02R
SPOKANE        MOSUNNY   59  50  72 VRB3      30.03R
$$

REGIONAL REPORTS...ALBERTA

CITY           SKY/WX    TMP DP  RH WIND       PRES   REMARKS
EDMONTON       PTSUNNY   63  50  63 W3        29.96F
CALGARY        PTSUNNY   61  45  55 VRB2      30.02F
LETHBRIDGE     PTSUNNY   61  50  67 NW8       30.02F
MEDICINE HAT   CLOUDY    59  52  77 VRB2      29.97F
$$

REGIONAL REPORTS...SASKATCHEWAN

CITY           SKY/WX    TMP DP  RH WIND       PRES   REMARKS
SWIFT CURRENT  MOSUNNY   64  50  59 E14       29.97R
REGINA         PTSUNNY   63  48  59 E14       30.00S
SASKATOON      MOSUNNY   55  43  62 E8        30.05F
$$



USA.gov is the U.S. government's official web portal to all federal, state and local government web resources and services.